Location: Artiguedieu
(43.5000°N, 0.5454°E)
Time: 10:30:25
(UTC+00:00)

Vanguard 1 Rocket - Pass Details

Date: 30 July 2021
Orbit: 650 x 4226 km, 34.3° (Epoch: 24 September)

Event Time Altitude Azimuth Distance (km) Brightness Sun altitude
Rises 11:36:46 0° 247° (WSW) 7,480 12.1 64.2°
Reaches altitude 10° 11:42:44 10° 244° (WSW) 5,929 11.8 64.5°
Maximum altitude 11:57:45 49° 176° (S) 2,272 11.4 64.8°
Drops below altitude 10° 12:05:36 10° 104° (ESE) 3,208 10.4 64.9°
Sets 12:07:51 0° 98° (E) 3,893 10.7 64.9°
